| time (UTC) | temp F | wind direction | speed MPH | gust MPH | rain 1hr in | rain 24hr in | rain mn in | humidity % | barometer mb |
| 20260505041550 | 43 | 200 | 2.0 | 6.0 | 0.00 | 0.22 | 0.00 | 84 | 1006.8 |
| 20260505040041 | 43 | 186 | 2.0 | 6.0 | 0.00 | 0.22 | 0.00 | 84 | 1006.6 |
| 20260505034532 | 42 | 172 | 1.0 | 4.0 | 0.00 | 0.26 | 0.00 | 83 | 1006.3 |
| 20260505033029 | 43 | 196 | 1.0 | 4.0 | 0.00 | 0.26 | 0.00 | 82 | 1006.1 |
| 20260505031529 | 43 | 178 | 1.0 | 6.0 | 0.00 | 0.26 | 0.00 | 81 | 1005.8 |
| 20260505030030 | 44 | 195 | 1.0 | 5.0 | 0.00 | 0.26 | 0.00 | 80 | 1005.7 |
| 20260505024525 | 44 | 182 | 3.0 | 6.0 | 0.00 | 0.28 | 0.26 | 79 | 1005.6 |
| 20260505023021 | 45 | 180 | 2.0 | 7.0 | 0.00 | 0.28 | 0.26 | 78 | 1005.5 |
| 20260505021525 | 45 | 180 | 1.0 | 6.0 | 0.00 | 0.28 | 0.26 | 77 | 1005.2 |
| 20260505020020 | 46 | 213 | 3.0 | 7.0 | 0.00 | 0.28 | 0.26 | 75 | 1005.0 |
| 20260505014518 | 47 | 233 | 3.0 | 8.0 | 0.00 | 0.28 | 0.26 | 74 | 1004.9 |
| 20260505013019 | 48 | 179 | 3.0 | 10.0 | 0.00 | 0.28 | 0.26 | 73 | 1004.9 |
| 20260505011524 | 49 | 196 | 3.0 | 9.0 | 0.00 | 0.28 | 0.26 | 71 | 1004.8 |
| 20260505010016 | 51 | 191 | 3.0 | 8.0 | 0.00 | 0.28 | 0.26 | 68 | 1004.7 |
| 20260505004522 | 50 | 262 | 4.0 | 10.0 | 0.00 | 0.31 | 0.26 | 67 | 1004.5 |
| 20260505003012 | 51 | 198 | 1.0 | 7.0 | 0.00 | 0.31 | 0.26 | 64 | 1004.4 |
| 20260505001512 | 51 | 142 | 4.0 | 13.0 | 0.00 | 0.31 | 0.26 | 62 | 1004.4 |
| 20260505000017 | 52 | 232 | 3.0 | 9.0 | 0.00 | 0.31 | 0.26 | 59 | 1004.4 |
| 20260504234509 | 52 | 236 | 2.0 | 8.0 | 0.00 | 0.34 | 0.26 | 57 | 1003.9 |
| 20260504233008 | 53 | 262 | 2.0 | 9.0 | 0.00 | 0.34 | 0.26 | 55 | 1004.0 |
| 20260504231505 | 53 | 218 | 1.0 | 7.0 | 0.00 | 0.34 | 0.26 | 53 | 1003.6 |
| 20260504230011 | 54 | 252 | 2.0 | 11.0 | 0.00 | 0.52 | 0.26 | 50 | 1003.2 |
| 20260504224502 | 54 | 234 | 3.0 | 11.0 | 0.00 | 0.52 | 0.26 | 50 | 1003.1 |
| 20260504223001 | 54 | 220 | 5.0 | 10.0 | 0.00 | 0.52 | 0.26 | 49 | 1002.7 |
| 20260504221601 | 54 | 198 | 6.0 | 11.0 | 0.00 | 0.52 | 0.26 | 51 | 1002.7 |
| 20260504214601 | 55 | 259 | 4.0 | 15.0 | 0.01 | 0.65 | 0.26 | 49 | 1002.3 |
| 20260504213130 | 56 | 241 | 5.0 | 15.0 | 0.01 | 0.65 | 0.26 | 49 | 1002.3 |
| 20260504213043 | 56 | 225 | 4.0 | 15.0 | 0.01 | 0.65 | 0.26 | 49 | 1002.5 |
| 20260504211603 | 56 | 317 | 3.0 | 19.0 | 0.01 | 0.65 | 0.26 | 51 | 1002.1 |
| 20260504210052 | 56 | 301 | 6.0 | 17.0 | 0.00 | 0.64 | 0.25 | 51 | 1002.1 |
| 20260504204554 | 57 | 222 | 5.0 | 17.0 | 0.00 | 0.74 | 0.25 | 52 | 1001.9 |
| 20260504203102 | 56 | 225 | 6.0 | 18.0 | 0.00 | 0.74 | 0.25 | 52 | 1001.7 |
| 20260504201545 | 56 | 280 | 3.0 | 25.0 | 0.00 | 0.74 | 0.25 | 55 | 1001.4 |
| 20260504200044 | 56 | 231 | 9.0 | 22.0 | 0.00 | 0.74 | 0.25 | 56 | 1001.0 |
| 20260504194555 | 56 | 215 | 7.0 | 22.0 | 0.00 | 0.78 | 0.25 | 59 | 1000.8 |
| 20260504193050 | 56 | 329 | 5.0 | 15.0 | 0.00 | 0.78 | 0.25 | 58 | 1000.4 |
| 20260504191535 | 56 | 240 | 6.0 | 18.0 | 0.00 | 0.78 | 0.25 | 59 | 1000.4 |
| 20260504190031 | 56 | 317 | 7.0 | 19.0 | 0.00 | 0.78 | 0.25 | 61 | 1000.4 |
| 20260504184529 | 55 | 257 | 5.0 | 18.0 | 0.00 | 0.79 | 0.25 | 62 | 1000.1 |
| 20260504183027 | 55 | 298 | 5.0 | 20.0 | 0.00 | 0.79 | 0.25 | 65 | 1000.0 |
| 20260504181523 | 54 | 218 | 6.0 | 19.0 | 0.00 | 0.79 | 0.25 | 64 | 999.7 |
| 20260504180021 | 54 | 261 | 10.0 | 21.0 | 0.00 | 0.79 | 0.25 | 64 | 999.9 |
| 20260504174518 | 53 | 248 | 9.0 | 22.0 | 0.00 | 0.79 | 0.25 | 68 | 999.3 |
| 20260504173024 | 52 | 259 | 8.0 | 21.0 | 0.00 | 0.79 | 0.25 | 70 | 999.3 |
| 20260504171518 | 52 | 267 | 7.0 | 22.0 | 0.00 | 0.79 | 0.25 | 71 | 999.0 |
| 20260504110116 | 37 | 350 | 12.0 | 34.0 | 0.05 | 0.73 | 0.20 | 90 | 989.0 |
| 20260504081517 | 38 | 180 | 8.0 | 23.0 | 0.01 | 0.65 | 0.12 | 90 | 980.7 |
| 20260504044557 | 39 | 183 | 3.0 | 10.0 | 0.02 | 0.59 | 0.06 | 93 | 974.2 |
| 20260504043044 | 39 | 187 | 3.0 | 8.0 | 0.02 | 0.57 | 0.05 | 93 | 973.6 |